EW2485 Weather Reports


Display with metric or nautical units.
time (UTC)temp
F
wind
direction
speed
MPH
gust
MPH
rain 1hr
in
rain 24hr
in
rain mn
in
humidity
%
barometer
mb
20260504044550 45 113 2.0 3.0 0.00 0.00 0.00 70 1011.3
20260504043002 46 138 2.0 4.0 0.00 0.00 0.00 67 1011.2
20260504041541 48 135 1.0 3.0 0.00 0.00 0.00 66 1011.2
20260504040009 48 223 1.0 3.0 0.00 0.00 0.00 63 1011.2
20260504034533 49 135 1.0 3.0 0.00 0.00 0.00 62 1011.3
20260504033052 50 149 2.0 6.0 0.00 0.00 0.00 60 1011.4
20260504031501 51 152 2.0 4.0 0.00 0.00 0.00 56 1011.5
20260504030031 51 324 1.0 3.0 0.00 0.00 0.00 55 1011.5
20260504024538 51 219 1.0 4.0 0.00 0.00 0.00 55 1011.6
20260504023051 52 250 2.0 7.0 0.00 0.00 0.00 55 1011.8
20260504021539 52 165 2.0 12.0 0.00 0.00 0.00 55 1011.9
20260504020057 52 189 4.0 12.0 0.00 0.00 0.00 55 1011.9
20260504014512 52 264 8.0 19.0 0.00 0.00 0.00 55 1011.9
20260504013047 52 198 10.0 17.0 0.00 0.00 0.00 55 1012.1
20260504011556 53 210 9.0 21.0 0.00 0.00 0.00 54 1011.8
20260504010023 52 232 6.0 20.0 0.00 0.00 0.00 54 1011.5
20260504004543 52 269 3.0 19.0 0.00 0.00 0.00 56 1011.8
20260504003100 52 283 8.0 17.0 0.00 0.00 0.00 55 1011.8
20260504001511 52 319 9.0 30.0 0.00 0.00 0.00 54 1011.5
20260504000050 53 304 5.0 15.0 0.00 0.00 0.00 54 1011.5
20260503234538 53 237 5.0 25.0 0.00 0.00 0.00 54 1011.5
20260503233014 54 236 8.0 23.0 0.00 0.00 0.00 51 1011.0
20260503231551 54 195 4.0 15.0 0.00 0.00 0.00 52 1010.8
20260503230115 54 1 2.0 9.0 0.00 0.00 0.00 51 1010.7
20260503224524 54 234 1.0 5.0 0.00 0.00 0.00 52 1010.7
20260503223049 54 284 4.0 6.0 0.00 0.00 0.00 52 1010.8
20260503221502 54 197 3.0 11.0 0.00 0.00 0.00 51 1010.9
20260503220034 55 259 4.0 15.0 0.00 0.00 0.00 49 1011.1
20260503214550 55 223 5.0 12.0 0.00 0.00 0.00 50 1011.1
20260503213028 55 241 3.0 10.0 0.00 0.00 0.00 53 1011.1
20260503211545 55 223 8.0 15.0 0.00 0.00 0.00 51 1011.1
20260503210008 54 248 5.0 15.0 0.00 0.00 0.00 51 1011.1
20260503204538 53 169 8.0 16.0 0.00 0.00 0.00 52 1011.3
20260503203026 52 250 10.0 33.0 0.00 0.00 0.00 53 1011.5
20260503201602 53 240 5.0 18.0 0.00 0.00 0.00 53 1011.5
20260503200040 54 278 8.0 21.0 0.00 0.00 0.00 51 1011.7
20260503194558 54 274 10.0 19.0 0.00 0.00 0.00 54 1011.9
20260503193034 52 262 10.0 17.0 0.00 0.00 0.00 51 1012.1
20260503191542 52 311 8.0 22.0 0.00 0.00 0.00 48 1012.2
20260503190105 54 265 9.0 19.0 0.00 0.00 0.00 50 1012.2
20260503184524 54 237 10.0 23.0 0.00 0.00 0.00 49 1012.1
20260503183041 54 326 7.0 16.0 0.00 0.00 0.00 48 1012.4
20260503181602 52 172 7.0 16.0 0.00 0.00 0.00 51 1012.5
20260503180022 52 214 6.0 17.0 0.00 0.00 0.00 50 1012.7
20260503174604 52 274 7.0 22.0 0.00 0.00 0.00 48 1012.8
20260503173027 52 149 3.0 20.0 0.00 0.00 0.00 52 1013.0
20260503171506 50 288 9.0 22.0 0.00 0.00 0.00 52 1013.2
20260503081541 36 285 3.0 8.0 0.00 0.00 0.00 79 1014.0
20260503071545 37 346 4.0 9.0 0.00 0.00 0.00 79 1013.9